BIELK01 EPDE-EPDE

Flight info

Callsign BIELK01
Flight time 0h 47m
Altitude 1900
Route STAY01/0020 STAY02/0020 STAY03/0020
Aircraft M346/M-G/LB1

Departure

Time 2026-05-05 15:39
Airport Deblin Military Air Base (EPDE)

Arrival

Time 2026-05-05 16:27
Airport Deblin Military Air Base (EPDE)
Time Latitude Longitude Altitude Speed Heading
2026-05-05 15:28 51.54647 21.89508 382 ft 0 kts 211°
2026-05-05 15:32 51.54638 21.89498 382 ft 4 kts 216°
2026-05-05 15:32 51.54646 21.89477 382 ft 8 kts 16°
2026-05-05 15:33 51.54694 21.89478 383 ft 7 kts 359°
2026-05-05 15:33 51.54737 21.89503 383 ft 5 kts
2026-05-05 15:33 51.54766 21.89472 382 ft 7 kts 302°
2026-05-05 15:33 51.54786 21.89417 382 ft 8 kts 300°
2026-05-05 15:34 51.54818 21.89330 382 ft 14 kts 300°
2026-05-05 15:34 51.54863 21.89210 382 ft 11 kts 301°
2026-05-05 15:34 51.54907 21.89092 382 ft 11 kts 300°
2026-05-05 15:34 51.54954 21.88966 382 ft 19 kts 300°
2026-05-05 15:35 51.55015 21.88799 386 ft 15 kts 301°
2026-05-05 15:35 51.55066 21.88662 382 ft 12 kts 300°
2026-05-05 15:35 51.55103 21.88563 382 ft 10 kts 301°
2026-05-05 15:35 51.55140 21.88463 382 ft 11 kts 301°
2026-05-05 15:36 51.55180 21.88356 382 ft 10 kts 301°
2026-05-05 15:36 51.55219 21.88249 382 ft 18 kts 301°
2026-05-05 15:36 51.55289 21.88060 382 ft 17 kts 301°
2026-05-05 15:36 51.55342 21.87919 382 ft 12 kts 301°
2026-05-05 15:37 51.55378 21.87821 382 ft 9 kts 301°
2026-05-05 15:37 51.55412 21.87733 382 ft 9 kts 305°
2026-05-05 15:37 51.55458 21.87704 382 ft 6 kts 11°
2026-05-05 15:37 51.55502 21.87721 382 ft 8 kts 13°
2026-05-05 15:38 51.55539 21.87736 382 ft 3 kts 13°
2026-05-05 15:38 51.55585 21.87755 384 ft 6 kts 23°
2026-05-05 15:38 51.55613 21.87818 385 ft 7 kts 83°
2026-05-05 15:38 51.55604 21.87876 385 ft 4 kts 116°
2026-05-05 15:39 51.55520 21.88100 383 ft 93 kts 121°
2026-05-05 15:39 51.54981 21.89576 536 ft 164 kts 122°
2026-05-05 15:39 51.54448 21.91094 777 ft 154 kts 124°
2026-05-05 15:39 51.54398 21.92676 1292 ft 165 kts 44°
2026-05-05 15:40 51.55358 21.93975 1612 ft 195 kts 30°
2026-05-05 15:40 51.56624 21.94639 1860 ft 187 kts
2026-05-05 15:40 51.58018 21.94793 1863 ft 200 kts 358°
2026-05-05 15:40 51.59194 21.93895 1880 ft 196 kts 298°
2026-05-05 15:41 51.59001 21.92267 1833 ft 167 kts 195°
2026-05-05 15:41 51.58029 21.93340 1800 ft 207 kts 100°
2026-05-05 15:41 51.58889 21.94674 1688 ft 192 kts 357°
2026-05-05 15:41 51.59864 21.93505 1839 ft 188 kts 275°
2026-05-05 15:42 51.59088 21.92223 1750 ft 197 kts 165°
2026-05-05 15:42 51.58547 21.93839 1846 ft 192 kts 45°
2026-05-05 15:42 51.59777 21.94350 1746 ft 209 kts 321°
2026-05-05 15:42 51.59846 21.92401 1576 ft 203 kts 213°
2026-05-05 15:43 51.58709 21.93015 1851 ft 205 kts 113°
2026-05-05 15:43 51.59399 21.94690 1706 ft 215 kts 351°
2026-05-05 15:43 51.60052 21.92872 1913 ft 229 kts 236°
2026-05-05 15:43 51.58798 21.92735 1768 ft 217 kts 118°
2026-05-05 15:44 51.59171 21.94656 1815 ft 184 kts
2026-05-05 15:44 51.60017 21.93470 1755 ft 185 kts 255°
2026-05-05 15:44 51.59072 21.92587 1741 ft 181 kts 164°
2026-05-05 15:44 51.58577 21.94154 2184 ft 179 kts 60°
2026-05-05 15:45 51.59796 21.94499 1859 ft 222 kts 316°
2026-05-05 15:45 51.59890 21.92395 1871 ft 209 kts 219°
2026-05-05 15:45 51.58755 21.92850 1862 ft 191 kts 122°
2026-05-05 15:45 51.58932 21.94754 1776 ft 175 kts 25°
2026-05-05 15:46 51.59950 21.93995 1790 ft 190 kts 277°
2026-05-05 15:46 51.59173 21.92560 1826 ft 208 kts 175°
2026-05-05 15:46 51.58524 21.94262 1913 ft 214 kts 74°
2026-05-05 15:46 51.59695 21.94932 1723 ft 203 kts 308°
2026-05-05 15:47 51.59719 21.93037 1861 ft 179 kts 212°
2026-05-05 15:47 51.58910 21.92895 1942 ft 191 kts 153°
2026-05-05 15:47 51.59455 21.94777 1748 ft 191 kts 348°
2026-05-05 15:47 51.60182 21.93406 1888 ft 176 kts 246°
2026-05-05 15:48 51.59103 21.92918 1702 ft 189 kts 159°
2026-05-05 15:48 51.58789 21.94594 1868 ft 193 kts 45°
2026-05-05 15:48 51.59930 21.94245 1944 ft 200 kts 287°
2026-05-05 15:48 51.59116 21.92890 1774 ft 238 kts 164°
2026-05-05 15:49 51.58885 21.94473 1746 ft 176 kts 33°
2026-05-05 15:49 51.59421 21.96162 2177 ft 167 kts 107°
2026-05-05 15:49 51.58568 21.97527 1796 ft 187 kts 171°
2026-05-05 15:49 51.57494 21.96886 1574 ft 174 kts 232°
2026-05-05 15:50 51.57046 21.95170 1760 ft 164 kts 266°
2026-05-05 15:50 51.57534 21.93527 1594 ft 183 kts 312°
2026-05-05 15:50 51.58531 21.93601 1392 ft 171 kts 11°
2026-05-05 15:50 51.59676 21.93039 1660 ft 200 kts 348°
2026-05-05 15:51 51.60810 21.94025 1902 ft 198 kts 66°
2026-05-05 15:51 51.60668 21.96063 1762 ft 195 kts 115°
2026-05-05 15:51 51.60174 21.98157 1713 ft 203 kts 116°
2026-05-05 15:51 51.59445 22.00037 1707 ft 197 kts 155°
2026-05-05 15:52 51.58124 22.00382 1590 ft 193 kts 184°
2026-05-05 15:52 51.57203 21.99209 1754 ft 172 kts 252°
2026-05-05 15:52 51.57383 21.97376 1847 ft 187 kts 297°
2026-05-05 15:52 51.58212 21.95796 1794 ft 181 kts 298°
2026-05-05 15:53 51.58743 21.94025 1752 ft 172 kts 303°
2026-05-05 15:53 51.59857 21.93204 1794 ft 208 kts 355°
2026-05-05 15:53 51.60903 21.94480 1765 ft 195 kts 68°
2026-05-05 15:53 51.60596 21.96251 1659 ft 166 kts 141°
2026-05-05 15:54 51.59926 21.97739 1607 ft 183 kts 120°
2026-05-05 15:54 51.59353 21.99445 1526 ft 171 kts 124°
2026-05-05 15:54 51.58237 22.00442 1695 ft 201 kts 170°
2026-05-05 15:54 51.57165 21.99414 1609 ft 191 kts 245°
2026-05-05 15:55 51.57403 21.97727 1710 ft 180 kts 330°
2026-05-05 15:55 51.58140 21.96303 1580 ft 157 kts 285°
2026-05-05 15:55 51.58594 21.94732 1481 ft 148 kts 295°
2026-05-05 15:55 51.59333 21.93446 1377 ft 179 kts 315°
2026-05-05 15:56 51.60487 21.93655 1694 ft 169 kts 49°
2026-05-05 15:56 51.61014 21.95467 1731 ft 176 kts 104°
2026-05-05 15:56 51.60500 21.97166 1637 ft 168 kts 123°
2026-05-05 15:56 51.59975 21.98650 1676 ft 140 kts 129°
2026-05-05 15:57 51.59321 21.99891 1591 ft 151 kts 158°
2026-05-05 15:57 51.58250 22.00357 1601 ft 146 kts 174°
2026-05-05 15:57 51.57385 21.99763 1751 ft 132 kts 240°
2026-05-05 15:57 51.57106 21.98245 1743 ft 159 kts 272°
2026-05-05 15:58 51.57636 21.96655 1866 ft 169 kts 301°
2026-05-05 15:58 51.58381 21.95118 1872 ft 179 kts 302°
2026-05-05 15:58 51.59127 21.93410 1899 ft 196 kts 319°
2026-05-05 15:58 51.60448 21.93400 1837 ft 219 kts 59°
2026-05-05 15:59 51.60937 21.95611 1976 ft 211 kts 72°
2026-05-05 15:59 51.61759 21.97348 1934 ft 192 kts 24°
2026-05-05 15:59 51.63117 21.97512 1839 ft 201 kts
2026-05-05 15:59 51.64058 21.98800 1990 ft 198 kts 92°
2026-05-05 16:00 51.63370 22.00602 1825 ft 193 kts 175°
2026-05-05 16:00 51.62344 21.99701 1861 ft 176 kts 243°
2026-05-05 16:00 51.62223 21.97831 1818 ft 184 kts 274°
2026-05-05 16:00 51.62867 21.96024 1988 ft 190 kts 333°
2026-05-05 16:01 51.64003 21.96617 2054 ft 206 kts 60°
2026-05-05 16:01 51.63899 21.98759 2092 ft 201 kts 119°
2026-05-05 16:01 51.62878 22.00126 1908 ft 195 kts 185°
2026-05-05 16:01 51.62032 21.98715 1915 ft 199 kts 259°
2026-05-05 16:02 51.62597 21.96563 1822 ft 223 kts 312°
2026-05-05 16:02 51.63946 21.96111 1879 ft 198 kts 38°
2026-05-05 16:02 51.64125 21.98153 1845 ft 215 kts 130°
2026-05-05 16:02 51.62772 21.98883 2124 ft 220 kts 199°
2026-05-05 16:03 51.62126 21.97224 2173 ft 181 kts 278°
2026-05-05 16:03 51.63251 21.95690 2085 ft 236 kts 356°
2026-05-05 16:03 51.64242 21.97106 1832 ft 216 kts 101°
2026-05-05 16:03 51.63731 21.99047 1860 ft 180 kts 136°
2026-05-05 16:04 51.62462 21.99945 1922 ft 207 kts 198°
2026-05-05 16:04 51.62174 21.97890 1802 ft 221 kts 282°
2026-05-05 16:04 51.63113 21.95975 1925 ft 227 kts 344°
2026-05-05 16:04 51.64149 21.97074 1964 ft 191 kts 89°
2026-05-05 16:05 51.63943 21.99201 1927 ft 195 kts 127°
2026-05-05 16:05 51.62837 21.99835 1624 ft 185 kts 220°
2026-05-05 16:05 51.62255 21.98027 1826 ft 189 kts 258°
2026-05-05 16:05 51.62688 21.96006 1756 ft 214 kts 325°
2026-05-05 16:06 51.64004 21.96250 1844 ft 199 kts 52°
2026-05-05 16:06 51.63985 21.98283 1625 ft 193 kts 116°
2026-05-05 16:06 51.64446 21.99865 1739 ft 196 kts 355°
2026-05-05 16:06 51.65197 21.98427 1820 ft 191 kts 232°
2026-05-05 16:07 51.64010 21.98748 1834 ft 230 kts 121°
2026-05-05 16:07 51.64433 22.00721 1956 ft 208 kts
2026-05-05 16:07 51.65416 21.99089 1756 ft 236 kts 274°
2026-05-05 16:07 51.64607 21.97608 1670 ft 201 kts 155°
2026-05-05 16:08 51.63622 21.99158 1689 ft 216 kts 160°
2026-05-05 16:08 51.62384 21.98395 1584 ft 210 kts 246°
2026-05-05 16:08 51.62827 21.96374 1790 ft 213 kts 330°
2026-05-05 16:08 51.64079 21.96615 1907 ft 193 kts 63°
2026-05-05 16:09 51.64039 21.98630 1693 ft 199 kts 100°
2026-05-05 16:09 51.64654 22.00565 1672 ft 220 kts
2026-05-05 16:09 51.65471 21.98996 1820 ft 197 kts 272°
2026-05-05 16:09 51.64822 21.97326 1977 ft 203 kts 195°
2026-05-05 16:10 51.64023 21.99042 1522 ft 218 kts 135°
2026-05-05 16:10 51.62771 21.99722 1851 ft 197 kts 205°
2026-05-05 16:10 51.62240 21.97750 1793 ft 216 kts 274°
2026-05-05 16:10 51.63150 21.95997 1835 ft 216 kts 346°
2026-05-05 16:11 51.64284 21.96738 1873 ft 183 kts 89°
2026-05-05 16:11 51.65365 21.99640 1468 ft 165 kts 278°
2026-05-05 16:12 51.65036 21.97862 1387 ft 165 kts 216°
2026-05-05 16:12 51.63377 22.00024 1904 ft 197 kts 172°
2026-05-05 16:13 51.63469 21.96201 1988 ft 202 kts 18°
2026-05-05 16:13 51.64065 21.98110 1572 ft 233 kts 119°
2026-05-05 16:13 51.64215 22.00382 1678 ft 222 kts 30°
2026-05-05 16:14 51.64757 21.97790 1662 ft 165 kts 195°
2026-05-05 16:14 51.63685 22.00645 1587 ft 179 kts 125°
2026-05-05 16:15 51.62195 22.03744 1821 ft 173 kts 135°
2026-05-05 16:15 51.60592 22.06648 1868 ft 192 kts 137°
2026-05-05 16:16 51.58832 22.09676 1895 ft 186 kts 137°
2026-05-05 16:16 51.57318 22.12488 1769 ft 152 kts 135°
2026-05-05 16:17 51.56189 22.11511 1838 ft 179 kts 303°
2026-05-05 16:17 51.57278 22.11231 1783 ft 178 kts 53°
2026-05-05 16:18 51.56140 22.12774 1707 ft 165 kts 240°
2026-05-05 16:18 51.56742 22.11333 1783 ft 202 kts 352°
2026-05-05 16:18 51.56121 22.12840 1461 ft 171 kts 235°
2026-05-05 16:19 51.56646 22.11402 1683 ft 189 kts 351°
2026-05-05 16:19 51.57179 22.12618 1308 ft 183 kts 139°
2026-05-05 16:19 51.56676 22.11235 1663 ft 225 kts 347°
2026-05-05 16:20 51.56305 22.13163 1381 ft 181 kts 201°
2026-05-05 16:20 51.57232 22.11603 1534 ft 191 kts 64°
2026-05-05 16:21 51.55845 22.12465 1523 ft 170 kts 278°
2026-05-05 16:22 51.56021 22.12954 1441 ft 182 kts 233°
2026-05-05 16:22 51.57336 22.12342 1259 ft 175 kts 126°
2026-05-05 16:23 51.55314 22.11989 1554 ft 194 kts 214°
2026-05-05 16:23 51.54183 22.10698 2023 ft 193 kts 214°
2026-05-05 16:23 51.52306 22.08574 1922 ft 137 kts 214°
2026-05-05 16:24 51.51856 22.07234 1781 ft 149 kts 258°
2026-05-05 16:24 51.51775 22.05738 1724 ft 120 kts 258°
2026-05-05 16:24 51.51595 22.02758 1754 ft 135 kts 258°
2026-05-05 16:25 51.51514 22.01255 1739 ft 124 kts 259°
2026-05-05 16:25 51.51819 21.97996 1455 ft 195 kts 296°
2026-05-05 16:25 51.52497 21.96320 1314 ft 155 kts 301°
2026-05-05 16:26 51.53429 21.93770 923 ft 107 kts 292°
2026-05-05 16:26 51.54220 21.91612 548 ft 109 kts 297°
2026-05-05 16:27 51.54587 21.90625 397 ft 102 kts 297°
2026-05-05 16:27 51.54828 21.89963 383 ft 26 kts 300°
2026-05-05 16:27 51.54895 21.89781 382 ft 16 kts 302°
2026-05-05 16:27 51.54879 21.89658 382 ft 9 kts 213°
2026-05-05 16:28 51.54835 21.89614 383 ft 9 kts 211°
2026-05-05 16:28 51.54795 21.89576 383 ft 4 kts 211°
2026-05-05 16:28 51.54779 21.89561 383 ft 3 kts 211°
2026-05-05 16:28 51.54758 21.89540 383 ft 4 kts 211°
2026-05-05 16:29 51.54693 21.89468 383 ft 15 kts 212°
2026-05-05 16:29 51.54643 21.89466 383 ft 3 kts 86°
2026-05-05 16:29 51.54652 21.89482 383 ft 0 kts 31°